Showing default

OPS 3367 A, 734

Orbit data source: Space-Track

OPS 3367 A, 734 is an American payload satellite in SSO that was launched on Sun, 19 Jan 1964 UTC via a THOR SLV-2 AGENA D launch vehicle from the Air Force Western Test Range (AFWTR). Payload-class satellites include a variety of spacecraft equipped with specific instruments for various scientific and technological missions. These include communications satellites like Starlink; space stations such as the ISS; scientific satellites like the Hubble; Earth observation satellites from companies like Planet Labs, Umbra, and HawkEye 360; GPS; miniature CubeSats for education and research; and military/defense satellites.

Loading next visibility...
Identifier
734, 1964-002B
Orbit
SSO
Last TLE update
8 hours ago
Origin
Manufacturer
RCA/East Windsor
Mission
Defense Weather
Bus & Motor
P35, Unknown motor
Mass
50 kg wet, 50 kg dry
Launch date (UTC)
1964-01-19 (61 years ago)
Launch vehicle
THOR SLV-2 AGENA D
Launch site
Air Force Western Test Range (AFWTR)
Object type
Payload
Rocket body
Debris
Shape & HBR
Cyl, 0.6 m
Radar Cross Section
0.377 m², Medium (>0.1 m² and < 1m²)

Expand to show TLE details & history

TLE from 8 hours ago
0 OPS 3367 A
1   734U 64002B   25186.38396342  .00000058  00000-0  40788-4 0  9990
2   734  98.9701 101.1981 0015447 111.8505 248.4320 14.29561712199306
Epoch: 2025-07-05T09:12Z
TLE epoch observation values (Epoch: 2025-07-05T09:12:54.439Z)
Latitude
-0.00007°
Longitude
39.3485°
Altitude
800.203 km
Speed
7.451 km/s
True Right ascension
06h 44m 47s
True Declination
0° 00' 00"
Sunlit
Object was in daylight at epoch
Visualization orbit readout
Latitude
-79.83084°
Longitude
100.77886°
Altitude
831.877 km
Speed
7.431 km/s
Apparent Right ascension
16h 08m 51s
Apparent Declination
-65° 59' 09"
Sunlit
Object is in daylight
Visualization observer readout
Local Sidereal Time
05:08:16
Azimuth
166.898° S
Elevation
-62.602°
Doppler factor
1
Orbital elements
Apogee altitude
801.428 km
Perigee altitude
779.282 km
Semi-major axis
7,168.492 km
Eccentricity
0.00154
Inclination
98.9701°
RAAN
101.1981°
Arg. of periapsis
111.8505°
True anomaly
Unknown
Mean anomaly
248.432°
Eccentric anomaly
Unknown
Mean motion
3.57603 °/min
Orbital period
100.67 mins
BSTAR
0.000040788
Loading maneuver chart data...
Loading SW <> Apogee altitude chart data...
Loading historical data...
Loading historical data...
Loading historical data...
Loading historical data...
Loading historical data...
Loading historical data...
Loading historical data...
Other satellites on launch #2 in the year 1964 (1964-01-19 UTC)

OPS 3367 A Visibility forecast

Observer location: undefined°, undefined°

Span
Click to sort rows by Start time (UTC) header in descending order
Start Az.
Max El. time (UTC)
Max El. Az.
Max El.
End time (UTC)
End Az.
9 mins2025-07-05 17:43:56.097Z140.979° SSE2025-07-05 17:48:56.097Z60.589° ENE35.247°2025-07-05 17:52:56.097Z1.315° NNE
6 mins2025-07-05 19:25:56.097Z231.374° WSW2025-07-05 19:27:56.097Z259.364° W19.413°2025-07-05 19:31:56.097Z312.154° NW
5 mins2025-07-06 05:59:56.097Z66.26° ENE2025-07-06 06:01:56.097Z92.321° ESE15.423°2025-07-06 06:04:56.097Z128.83° SE
8 mins2025-07-06 07:37:56.097Z2.23° NNE2025-07-06 07:41:56.097Z279.484° WNW40.215°2025-07-06 07:45:56.097Z212.51° SW
|